EW9717 Weather Reports


Display with metric or nautical units.
time (UTC)temp
F
wind
direction
speed
MPH
gust
MPH
rain 1hr
in
rain 24hr
in
rain mn
in
humidity
%
barometer
mb
20191018105013 54 197 5.0 10.0 0.00 0.00 0.00 72 879.1
20191018104514 54 238 6.0 10.0 0.00 0.00 0.00 72 879.1
20191018104014 54 213 5.0 10.0 0.00 0.00 0.00 71 879.1
20191018103514 54 198 5.0 10.0 0.00 0.00 0.00 71 878.9
20191018103014 54 210 5.0 12.0 0.00 0.00 0.00 71 879.0
20191018102514 54 210 5.0 12.0 0.00 0.00 0.00 70 879.1
20191018102014 54 195 5.0 10.0 0.00 0.00 0.00 70 879.2
20191018101511 54 213 6.0 10.0 0.00 0.00 0.00 70 879.2
20191018101010 54 231 5.0 10.0 0.00 0.00 0.00 69 879.3
20191018100509 54 216 5.0 9.0 0.00 0.00 0.00 69 879.2
20191018100010 54 169 5.0 12.0 0.00 0.00 0.00 69 879.3
20191018095510 54 162 6.0 12.0 0.00 0.00 0.00 69 879.2
20191018095008 54 219 6.0 11.0 0.00 0.00 0.00 69 879.2
20191018094511 54 229 6.0 11.0 0.00 0.00 0.00 68 879.1
20191018094008 54 236 6.0 12.0 0.00 0.00 0.00 68 879.0
20191018093507 54 193 6.0 12.0 0.00 0.00 0.00 68 879.1
20191018093009 54 172 6.0 12.0 0.00 0.00 0.00 68 879.2
20191018092507 53 175 5.0 12.0 0.00 0.00 0.00 68 879.4
20191018092009 53 205 5.0 11.0 0.00 0.00 0.00 67 879.3
20191018091510 53 189 5.0 10.0 0.00 0.00 0.00 67 879.3
20191018091005 53 206 5.0 8.0 0.00 0.00 0.00 66 879.5
20191018090507 53 197 5.0 8.0 0.00 0.00 0.00 65 879.6
20191018090007 53 172 4.0 8.0 0.00 0.00 0.00 65 879.6
20191018085505 54 175 4.0 8.0 0.00 0.00 0.00 64 879.8
20191018085006 54 184 4.0 8.0 0.00 0.00 0.00 63 879.9
20191018084505 54 200 5.0 9.0 0.00 0.00 0.00 63 879.9
20191018084007 54 191 5.0 13.0 0.00 0.00 0.00 62 879.9
20191018083506 55 179 6.0 14.0 0.00 0.00 0.00 62 879.9
20191018083006 55 169 6.0 14.0 0.00 0.00 0.00 61 879.9
20191018082507 55 188 6.0 12.0 0.00 0.00 0.00 60 879.8
20191018082006 55 179 6.0 12.0 0.00 0.00 0.00 59 879.8
20191018081505 56 172 6.0 12.0 0.00 0.00 0.00 59 879.9
20191018081006 56 181 6.0 18.0 0.00 0.00 0.00 59 879.8
20191018080504 56 205 6.0 18.0 0.00 0.00 0.00 58 879.8
20191018080004 56 204 7.0 18.0 0.00 0.00 0.00 58 879.9
20191018075503 56 177 8.0 18.0 0.00 0.00 0.00 58 879.9
20191018075005 56 191 8.0 14.0 0.00 0.00 0.00 57 880.0
20191018074504 56 208 8.0 13.0 0.00 0.00 0.00 57 880.0
20191018074004 56 191 8.0 13.0 0.00 0.00 0.00 57 879.9
20191018073505 56 184 8.0 14.0 0.00 0.00 0.00 56 879.8
20191018073005 56 167 8.0 14.0 0.00 0.00 0.00 56 879.9
20191018072504 56 146 9.0 20.0 0.00 0.00 0.00 55 880.0
20191018072004 56 181 10.0 20.0 0.00 0.00 0.00 55 880.1
20191018071504 56 174 8.0 15.0 0.00 0.00 0.00 56 880.2
20191018071003 55 181 7.0 14.0 0.00 0.00 0.00 56 880.3
20191018070503 55 186 6.0 12.0 0.00 0.00 0.00 55 880.2
20191018070001 56 179 5.0 11.0 0.00 0.00 0.00 55 880.3
20191018065502 56 124 6.0 13.0 0.00 0.00 0.00 54 880.2
20191018065002 56 155 6.0 13.0 0.00 0.00 0.00 54 880.2
20191018064502 56 162 7.0 12.0 0.00 0.00 0.00 54 880.1
20191018064002 56 182 6.0 12.0 0.00 0.00 0.00 53 880.1
20191018063501 56 187 6.0 11.0 0.00 0.00 0.00 53 880.3
20191018063004 57 158 6.0 9.0 0.00 0.00 0.00 53 880.5
20191018062503 57 174 5.0 12.0 0.00 0.00 0.00 52 880.4
20191018062002 57 217 6.0 12.0 0.00 0.00 0.00 52 880.4
20191018061502 57 194 6.0 12.0 0.00 0.00 0.00 51 880.4
20191018061001 57 218 6.0 12.0 0.00 0.00 0.00 51 880.4
20191018060502 58 186 6.0 11.0 0.00 0.00 0.00 50 880.4
20191018060001 58 171 6.0 12.0 0.00 0.00 0.00 50 880.3
20191018055503 58 197 6.0 12.0 0.00 0.00 0.00 50 880.4
20191018055001 58 158 6.0 12.0 0.00 0.00 0.00 49 880.5
20191018054502 58 179 6.0 12.0 0.00 0.00 0.00 49 880.5
20191018054002 58 200 7.0 12.0 0.00 0.00 0.00 49 880.5
20191018053503 58 184 6.0 11.0 0.00 0.00 0.00 48 880.7
20191018053001 58 205 6.0 11.0 0.00 0.00 0.00 48 880.6
20191018052503 58 167 6.0 12.0 0.00 0.00 0.00 47 880.7
20191018052002 58 212 7.0 13.0 0.00 0.00 0.00 47 880.7
20191018051501 59 195 7.0 14.0 0.00 0.00 0.00 47 880.6
20191018051003 59 176 7.0 14.0 0.00 0.00 0.00 47 880.7
20191018050502 59 190 7.0 13.0 0.00 0.00 0.00 46 880.6
20191018050001 59 212 7.0 13.0 0.00 0.00 0.00 46 880.7
20191018045502 59 169 7.0 14.0 0.00 0.00 0.00 46 880.9
20191018045001 59 174 8.0 16.0 0.00 0.00 0.00 46 880.9
20191018044501 60 180 8.0 17.0 0.00 0.00 0.00 46 880.9
20191018044000 60 186 8.0 17.0 0.00 0.00 0.00 46 880.9
20191018043501 60 193 7.0 12.0 0.00 0.00 0.00 46 880.8
20191018043001 60 219 6.0 12.0 0.00 0.00 0.00 47 880.8
20191018042501 59 206 6.0 13.0 0.00 0.00 0.00 47 880.8
20191018042000 59 179 6.0 13.0 0.00 0.00 0.00 48 880.7
20191018041503 59 195 6.0 11.0 0.00 0.00 0.00 48 880.8
20191018041001 59 160 6.0 11.0 0.00 0.00 0.00 48 880.9
20191018040459 59 186 6.0 10.0 0.00 0.00 0.00 47 880.9
20191018040000 60 191 5.0 10.0 0.00 0.00 0.00 47 881.0
20191018035459 60 192 6.0 10.0 0.00 0.00 0.00 46 881.0
20191018034959 60 181 6.0 10.0 0.00 0.00 0.00 46 880.9
20191018034458 61 172 6.0 11.0 0.00 0.00 0.00 45 880.9
20191018033959 61 206 7.0 11.0 0.00 0.00 0.00 45 880.9
20191018033458 61 174 7.0 12.0 0.00 0.00 0.00 44 880.8
20191018032958 62 206 7.0 12.0 0.00 0.00 0.00 44 880.9
20191018032456 62 169 8.0 14.0 0.00 0.00 0.00 43 880.9
20191018031957 62 192 7.0 14.0 0.00 0.00 0.00 43 881.0
20191018031456 62 199 7.0 13.0 0.00 0.00 0.00 43 880.9
20191018030957 62 184 7.0 13.0 0.00 0.00 0.00 43 880.8
20191018030456 62 184 7.0 11.0 0.00 0.00 0.00 42 880.8
20191018025957 63 196 7.0 14.0 0.00 0.00 0.00 41 880.7
20191018025457 63 176 6.0 14.0 0.00 0.00 0.00 41 880.6
20191018024956 63 202 7.0 11.0 0.00 0.00 0.00 41 880.6
20191018024456 63 164 7.0 13.0 0.00 0.00 0.00 41 880.7
20191018023957 63 184 7.0 13.0 0.00 0.00 0.00 40 880.8
20191018023456 63 211 7.0 13.0 0.00 0.00 0.00 40 880.7
20191018022958 63 191 7.0 12.0 0.00 0.00 0.00 40 880.7
20191018022457 64 177 7.0 13.0 0.00 0.00 0.00 39 880.7
20191018021957 64 195 7.0 13.0 0.00 0.00 0.00 39 880.7
20191018021456 64 165 7.0 11.0 0.00 0.00 0.00 38 880.7
20191018020958 64 178 7.0 12.0 0.00 0.00 0.00 37 880.6
20191018020456 65 179 8.0 14.0 0.00 0.00 0.00 37 880.6
20191018015958 65 176 8.0 14.0 0.00 0.00 0.00 36 880.5
20191018015456 65 186 8.0 15.0 0.00 0.00 0.00 35 880.6
20191018014957 65 182 7.0 15.0 0.00 0.00 0.00 35 880.6
20191018014456 66 153 7.0 13.0 0.00 0.00 0.00 34 880.6
20191018013956 66 179 7.0 13.0 0.00 0.00 0.00 33 880.6
20191018013457 66 198 6.0 12.0 0.00 0.00 0.00 33 880.6
20191018012957 66 176 6.0 12.0 0.00 0.00 0.00 32 880.6
20191018012458 67 166 6.0 10.0 0.00 0.00 0.00 32 880.5
20191018011956 67 179 6.0 10.0 0.00 0.00 0.00 31 880.4
20191018011458 68 192 6.0 10.0 0.00 0.00 0.00 30 880.5
20191018010957 68 202 7.0 13.0 0.00 0.00 0.00 29 880.5
20191018010457 69 197 7.0 13.0 0.00 0.00 0.00 28 880.5
20191018005956 69 189 6.0 13.0 0.00 0.00 0.00 27 880.6
20191018005457 69 212 5.0 11.0 0.00 0.00 0.00 27 880.6
20191018004956 70 195 5.0 10.0 0.00 0.00 0.00 26 880.6
20191018004457 70 194 5.0 11.0 0.00 0.00 0.00 26 880.5
20191018003956 70 215 6.0 11.0 0.00 0.00 0.00 25 880.5
20191018003456 71 176 5.0 10.0 0.00 0.00 0.00 25 880.4
20191018002957 71 174 5.0 9.0 0.00 0.00 0.00 24 880.4
20191018002458 72 150 5.0 11.0 0.00 0.00 0.00 24 880.3
20191018001956 73 191 6.0 11.0 0.00 0.00 0.00 23 880.3
20191018001458 73 212 6.0 11.0 0.00 0.00 0.00 23 880.4
20191018000957 74 203 6.0 12.0 0.00 0.00 0.00 22 880.3
20191018000458 74 172 6.0 12.0 0.00 0.00 0.00 22 880.4
20191017235957 75 193 6.0 10.0 0.00 0.00 0.00 21 880.4
20191017235457 75 176 7.0 12.0 0.00 0.00 0.00 21 880.3
20191017234957 76 169 7.0 14.0 0.00 0.00 0.00 21 880.3
20191017234456 76 181 7.0 14.0 0.00 0.00 0.00 20 880.3
20191017233957 77 165 7.0 12.0 0.00 0.00 0.00 19 880.3
20191017233456 77 178 8.0 15.0 0.00 0.00 0.00 18 880.4
20191017232956 77 197 8.0 15.0 0.00 0.00 0.00 18 880.5
20191017232457 78 200 9.0 19.0 0.00 0.00 0.00 18 880.5
20191017231957 78 195 9.0 19.0 0.00 0.00 0.00 18 880.5
20191017231456 78 186 8.0 14.0 0.00 0.00 0.00 19 880.6
20191017230957 78 208 7.0 13.0 0.00 0.00 0.00 19 880.6
20191017230454 78 181 8.0 13.0 0.00 0.00 0.00 19 880.6
20191017225955 79 214 8.0 16.0 0.00 0.00 0.00 18 880.6
20191017225453 79 183 10.0 22.0 0.00 0.00 0.00 18 880.7
20191017224952 80 176 10.0 22.0 0.00 0.00 0.00 17 880.9
20191017224448 80 235 9.0 18.0 0.00 0.00 0.00 17 880.9
20191017223948 81 179 8.0 18.0 0.00 0.00 0.00 17 881.0
20191017223447 81 224 8.0 21.0 0.00 0.00 0.00 17 881.0
20191017222946 81 167 9.0 21.0 0.00 0.00 0.00 16 881.0
20191017222447 81 207 9.0 16.0 0.00 0.00 0.00 17 881.0
20191017221946 81 196 10.0 20.0 0.00 0.00 0.00 16 881.0
20191017221445 81 233 10.0 20.0 0.00 0.00 0.00 15 881.1
20191017220943 81 191 10.0 23.0 0.00 0.00 0.00 17 881.1
20191017220442 81 200 10.0 23.0 0.00 0.00 0.00 16 881.1
20191017215941 81 204 11.0 23.0 0.00 0.00 0.00 16 881.2
20191017215440 81 161 11.0 23.0 0.00 0.00 0.00 16 881.2
20191017214938 82 198 12.0 23.0 0.00 0.00 0.00 15 881.3
20191017214437 82 229 10.0 23.0 0.00 0.00 0.00 15 881.4
20191017213935 82 195 9.0 20.0 0.00 0.00 0.00 17 881.4
20191017213433 81 227 10.0 22.0 0.00 0.00 0.00 17 881.4
20191017212933 81 184 12.0 22.0 0.00 0.00 0.00 17 881.3
20191017212433 80 226 11.0 21.0 0.00 0.00 0.00 18 881.3
20191017211931 80 223 10.0 21.0 0.00 0.00 0.00 18 881.4
20191017211430 80 188 9.0 17.0 0.00 0.00 0.00 19 881.5
20191017210931 80 232 9.0 17.0 0.00 0.00 0.00 18 881.6
20191017210431 80 181 10.0 18.0 0.00 0.00 0.00 18 881.7
20191017205929 80 203 10.0 19.0 0.00 0.00 0.00 19 881.8
20191017205427 80 197 11.0 21.0 0.00 0.00 0.00 19 881.8
20191017204924 80 213 11.0 21.0 0.00 0.00 0.00 19 881.8
20191017204425 80 167 11.0 21.0 0.00 0.00 0.00 19 882.0
20191017203924 79 212 11.0 21.0 0.00 0.00 0.00 20 882.1
20191017203424 79 219 10.0 19.0 0.00 0.00 0.00 19 882.1
20191017202925 78 180 10.0 18.0 0.00 0.00 0.00 20 882.3
20191017202425 79 181 9.0 19.0 0.00 0.00 0.00 20 882.4
20191017201923 79 219 9.0 19.0 0.00 0.00 0.00 21 882.5
20191017201423 79 195 9.0 20.0 0.00 0.00 0.00 22 882.5
20191017200923 79 203 9.0 20.0 0.00 0.00 0.00 21 882.5
20191017200422 80 172 9.0 20.0 0.00 0.00 0.00 22 882.6
20191017195921 80 188 10.0 18.0 0.00 0.00 0.00 21 882.7
20191017195420 79 199 11.0 18.0 0.00 0.00 0.00 21 882.8
20191017194920 79 228 11.0 19.0 0.00 0.00 0.00 21 882.9
20191017194420 79 176 11.0 19.0 0.00 0.00 0.00 21 883.1
20191017193920 79 188 11.0 18.0 0.00 0.00 0.00 22 883.2
20191017193420 79 207 12.0 18.0 0.00 0.00 0.00 21 883.3
20191017192920 79 228 10.0 17.0 0.00 0.00 0.00 20 883.4
20191017192417 80 206 8.0 16.0 0.00 0.00 0.00 21 883.4
20191017191914 79 220 9.0 18.0 0.00 0.00 0.00 23 883.6
20191017191413 79 204 10.0 18.0 0.00 0.00 0.00 23 883.6
20191017190914 78 226 10.0 17.0 0.00 0.00 0.00 23 883.5
20191017190414 78 197 10.0 18.0 0.00 0.00 0.00 23 883.8
20191017185914 78 209 10.0 18.0 0.00 0.00 0.00 24 883.8
20191017185415 78 245 11.0 20.0 0.00 0.00 0.00 22 884.0
20191017184912 78 214 11.0 20.0 0.00 0.00 0.00 22 884.1
20191017184412 77 213 11.0 20.0 0.00 0.00 0.00 24 884.1
20191017183914 77 214 11.0 20.0 0.00 0.00 0.00 24 884.3
20191017183412 77 212 11.0 18.0 0.00 0.00 0.00 24 884.4
20191017182910 77 200 10.0 18.0 0.00 0.00 0.00 26 884.4
20191017182410 77 219 10.0 18.0 0.00 0.00 0.00 26 884.5
20191017181910 76 233 10.0 22.0 0.00 0.00 0.00 26 884.6
20191017181410 76 249 10.0 22.0 0.00 0.00 0.00 25 884.6
20191017180911 76 251 10.0 16.0 0.00 0.00 0.00 28 884.7
20191017180410 76 246 11.0 17.0 0.00 0.00 0.00 29 884.8
20191017175910 75 221 10.0 17.0 0.00 0.00 0.00 28 885.0
20191017175410 75 223 9.0 15.0 0.00 0.00 0.00 29 885.2
20191017174909 74 224 9.0 17.0 0.00 0.00 0.00 30 885.2
20191017174408 74 241 11.0 18.0 0.00 0.00 0.00 31 885.3
20191017173908 74 219 11.0 18.0 0.00 0.00 0.00 31 885.4
20191017173408 73 229 10.0 16.0 0.00 0.00 0.00 32 885.5
20191017172908 73 216 11.0 17.0 0.00 0.00 0.00 32 885.4
20191017172409 73 213 10.0 17.0 0.00 0.00 0.00 33 885.6
20191017171908 72 233 9.0 14.0 0.00 0.00 0.00 33 885.4
20191017171410 72 254 9.0 15.0 0.00 0.00 0.00 34 885.6
20191017170908 71 219 9.0 15.0 0.00 0.00 0.00 35 885.6
20191017170407 71 241 8.0 15.0 0.00 0.00 0.00 36 885.6
20191017165909 70 236 9.0 15.0 0.00 0.00 0.00 36 885.7
20191017165408 69 276 9.0 14.0 0.00 0.00 0.00 37 885.7
20191017164908 69 225 9.0 15.0 0.00 0.00 0.00 38 885.7
20191017164408 68 236 9.0 16.0 0.00 0.00 0.00 39 885.8
20191017163908 68 240 9.0 16.0 0.00 0.00 0.00 39 885.9
20191017163408 67 236 8.0 13.0 0.00 0.00 0.00 41 886.0
20191017162906 67 248 8.0 13.0 0.00 0.00 0.00 41 886.0
20191017162406 66 214 9.0 15.0 0.00 0.00 0.00 42 886.1
20191017161905 66 224 10.0 15.0 0.00 0.00 0.00 42 886.2
20191017161404 65 240 9.0 14.0 0.00 0.00 0.00 42 886.2
20191017160904 65 231 9.0 15.0 0.00 0.00 0.00 43 886.3
20191017160405 65 230 9.0 15.0 0.00 0.00 0.00 43 886.4
20191017155904 65 227 9.0 16.0 0.00 0.00 0.00 43 886.5
20191017155404 64 229 9.0 16.0 0.00 0.00 0.00 43 886.6
20191017154905 64 238 9.0 15.0 0.00 0.00 0.00 44 886.6
20191017154404 63 253 10.0 16.0 0.00 0.00 0.00 44 886.6
20191017153904 62 216 10.0 16.0 0.00 0.00 0.00 45 886.7
20191017153405 62 233 9.0 16.0 0.00 0.00 0.00 45 886.7
20191017152903 61 245 10.0 16.0 0.00 0.00 0.00 46 886.7
20191017152403 61 238 10.0 16.0 0.00 0.00 0.00 46 886.6
20191017151902 60 239 9.0 14.0 0.00 0.00 0.00 48 886.6
20191017151401 60 241 8.0 14.0 0.00 0.00 0.00 48 886.7
20191017150901 59 229 8.0 13.0 0.00 0.00 0.00 49 886.7
20191017150402 58 243 9.0 14.0 0.00 0.00 0.00 50 886.9
20191017145902 58 230 9.0 15.0 0.00 0.00 0.00 51 886.9
20191017145401 57 221 8.0 15.0 0.00 0.00 0.00 53 886.8
20191017144902 56 224 7.0 12.0 0.00 0.00 0.00 55 886.8
20191017144402 55 254 7.0 11.0 0.00 0.00 0.00 57 886.8
20191017143901 54 249 6.0 11.0 0.00 0.00 0.00 58 886.7
20191017143401 53 245 6.0 9.0 0.00 0.00 0.00 61 886.6
20191017142900 52 237 5.0 9.0 0.00 0.00 0.00 63 886.8
20191017142400 51 257 5.0 8.0 0.00 0.00 0.00 64 886.9
20191017141900 50 230 4.0 8.0 0.00 0.00 0.00 65 886.8
20191017141400 49 244 4.0 9.0 0.00 0.00 0.00 66 886.9
20191017140901 48 231 5.0 9.0 0.00 0.00 0.00 67 886.9
20191017140402 48 231 5.0 8.0 0.00 0.00 0.00 67 886.8
20191017135901 47 224 5.0 7.0 0.00 0.00 0.00 67 886.8
20191017135400 47 214 4.0 7.0 0.00 0.00 0.00 68 886.9
20191017134900 47 224 4.0 7.0 0.00 0.00 0.00 68 886.8
20191017134358 46 222 4.0 7.0 0.00 0.00 0.00 68 886.7
20191017133858 46 219 3.0 6.0 0.00 0.00 0.00 68 886.6
20191017133357 46 243 3.0 6.0 0.00 0.00 0.00 68 886.6
20191017132858 46 236 3.0 7.0 0.00 0.00 0.00 68 886.6
20191017132359 46 260 3.0 7.0 0.00 0.00 0.00 68 886.5
20191017131857 46 258 4.0 8.0 0.00 0.00 0.00 68 886.4
20191017131358 46 238 4.0 8.0 0.00 0.00 0.00 67 886.4
20191017130859 46 240 4.0 8.0 0.00 0.00 0.00 67 886.4
20191017130357 46 279 5.0 8.0 0.00 0.00 0.00 67 886.3
20191017125857 46 243 4.0 8.0 0.00 0.00 0.00 67 886.5
20191017125356 46 239 4.0 8.0 0.00 0.00 0.00 67 886.4
20191017124856 47 257 5.0 9.0 0.00 0.00 0.00 66 886.4
20191017124356 47 240 6.0 9.0 0.00 0.00 0.00 66 886.4
20191017123856 47 276 5.0 9.0 0.00 0.00 0.00 66 886.4
20191017123356 47 270 5.0 9.0 0.00 0.00 0.00 66 886.5
20191017122857 47 239 4.0 9.0 0.00 0.00 0.00 66 886.2
20191017122355 48 262 5.0 9.0 0.00 0.00 0.00 65 886.4
20191017121854 48 250 6.0 9.0 0.00 0.00 0.00 65 886.4
20191017121354 48 260 5.0 9.0 0.00 0.00 0.00 65 886.6
20191017120855 48 277 6.0 10.0 0.00 0.00 0.00 66 886.5
20191017120353 48 255 6.0 10.0 0.00 0.00 0.00 66 886.5
20191017115854 47 275 6.0 10.0 0.00 0.00 0.00 66 886.6
20191017115354 47 244 7.0 10.0 0.00 0.00 0.00 66 886.6
20191017114853 47 245 7.0 10.0 0.00 0.00 0.00 66 886.5
20191017114354 47 257 6.0 10.0 0.00 0.00 0.00 66 886.5
20191017113854 47 243 6.0 11.0 0.00 0.00 0.00 65 886.5
20191017113355 47 234 6.0 11.0 0.00 0.00 0.00 65 886.6
20191017112854 47 229 6.0 10.0 0.00 0.00 0.00 64 886.6
20191017112354 47 224 5.0 9.0 0.00 0.00 0.00 64 886.8
20191017111853 47 240 5.0 9.0 0.00 0.00 0.00 64 886.8
20191017111355 47 218 5.0 8.0 0.00 0.00 0.00 63 886.9
20191017110854 47 264 5.0 8.0 0.00 0.00 0.00 63 886.9
20191017110351 48 250 5.0 8.0 0.00 0.00 0.00 62 886.8
20191017105855 48 236 6.0 10.0 0.00 0.00 0.00 62 886.8